STARLINK-36686, 68719

Orbit data source: Space-Track

STARLINK-36686, 68719 is a payload satellite owned by SpaceX/Seattle (US) in LEO that was launched on Tue, 14 Apr 2026 UTC via an FALCON 9 launch vehicle from the Air Force Eastern Test Range (AFETR). Payload-class satellites include a variety of spacecraft equipped with specific instruments for various scientific and technological missions. These include communications satellites like Starlink; space stations such as the ISS; scientific satellites like the Hubble; Earth observation satellites from companies like Planet Labs, Umbra, and HawkEye 360; GPS; miniature CubeSats for education and research; and military/defense satellites.

Loading next visibility...
Identifier
68719, 2026-081W
Orbit
LEO
Country
Flag of USUS
Related business
Manufacturer
SpaceX/Seattle
Mission
Operational spacecraft
Bus & Motor
STARLINK V2MO, Unknown motor
Mass
575 kg wet, ~530 kg dry
Launch date (UTC)
2026-04-14 (2 months ago)
Launch vehicle
FALCON 9
Launch site
Air Force Eastern Test Range (AFETR)
Object type
Payload
Rocket body
Debris
Shape & HBR
Unknown shape, 14.5 m
Radar Cross Section
Large (>1 m²)

Expand to show TLE details & history
Last TLE update: 1 day ago

TLE from 1 day ago
0 STARLINK-36686
1 68719U 26081W   26170.57166993  .00024935  00000-0  74635-3 0  9991
2 68719  53.1599 279.9905 0001204  66.8037 293.3092 15.34413607 10354
Epoch: 2026-06-19T13:43Z
TLE epoch observation values (Epoch: 2026-06-19T13:43:12.281Z)
Latitude
-0.00007°
Longitude
166.39055°
Altitude
463.238 km
Speed
7.636 km/s
True Right ascension
18h 39m 57s
True Declination
0° 00' 00"
Sunlit
Object was in full shadow at epoch
Visualization orbit readout
Latitude
Unknown
Longitude
Unknown
Altitude
Unknown
Speed
Unknown
Apparent Right ascension
Unknown
Apparent Declination
Unknown
Sunlit
N/A
Visualization observer readout
Local Sidereal Time
07:17:39
Azimuth
Unknown
Elevation
Unknown
Doppler factor
Unknown
Orbital elements
Apogee altitude
463.743 km
Perigee altitude
462.096 km
Semi-major axis
6,841.057 km
Eccentricity
0.00012
Inclination
53.1599°
RAAN
279.9905°
Arg. of periapsis
66.8037°
True anomaly
293.29653°
Mean anomaly
293.3092°
Eccentric anomaly
293.30286°
Mean motion
3.83582 °/min
Orbital period
93.85 mins
BSTAR
0.00074635
Loading maneuver chart data...
Computing Atmospheric mass density...
Loading historical data...
Loading historical data...
Loading historical data...
Loading historical data...
Loading historical data...
Loading historical data...
Loading historical data...

Documentation

Showing up to 5 results
|